Date String (YYYY-MM-DD hh:mm:ss) UTC,Instrument flags,Ambient pressure (hPa),Sample flow (lpm),Bypass flow (lpm),Sample temperature (°C),Ambient temperature (°C),ASC tube jacket temperature (°C),LED temperature (°C),Box temperature (°C),Sample RH (%),Span deviation,Mass concentration (μg/m³),Mass concentration (μg/m³),Mass concentration (μg/m³)
DateTimeUTC,F1_M11,P_M11,Q1_M11,Q2_M11,T1_M11,T2_M11,T3_M11,T4_M11,T5_M11,U1_M11,ZSPAN_M11,X0_M11,X2_M11,X1_M11
2022-10-19 05:00:00,,0833.3,5.00,0.00,29.0,27.3,00.0,38.0,30.7,10.9,0000.0,0008.78,0003.62,0002.98
2022-10-19 05:01:00,,0833.3,5.00,0.00,29.0,27.3,00.0,38.0,30.7,10.8,0000.0,0008.04,0003.59,0002.96
2022-10-19 05:02:00,,0833.2,4.99,0.00,29.0,27.3,00.0,38.0,30.8,10.8,0000.0,0008.06,0003.61,0002.95
2022-10-19 05:03:00,,0833.2,5.00,0.00,29.0,27.3,00.0,37.9,30.7,10.8,0000.0,0007.82,0003.61,0002.95
2022-10-19 05:04:00,,0833.2,5.02,0.00,29.0,27.3,00.0,37.9,30.7,10.7,0000.0,0007.77,0003.63,0002.94
2022-10-19 05:05:00,,0833.2,5.00,0.00,29.0,27.3,00.0,37.9,30.7,10.7,0000.0,0007.69,0003.62,0002.94
2022-10-19 05:06:00,,0833.1,5.01,0.00,29.0,27.3,00.0,37.9,30.7,10.8,0000.0,0007.68,0003.56,0002.92
2022-10-19 05:07:00,,0833.1,5.00,0.00,29.0,27.3,00.0,37.9,30.7,10.7,0000.0,0007.45,0003.52,0002.91
2022-10-19 05:08:00,,0833.1,5.00,0.00,29.0,27.3,00.0,37.9,30.7,10.7,0000.0,0008.45,0003.50,0002.91
2022-10-19 05:09:00,,0833.1,4.99,0.00,29.0,27.3,00.0,37.9,30.7,10.7,0000.0,0009.56,0003.47,0002.90
2022-10-19 05:10:00,,0833.2,5.00,0.00,29.0,27.3,00.0,37.9,30.7,10.7,0000.0,0009.10,0003.44,0002.89
2022-10-19 05:11:00,,0833.1,4.99,0.00,28.9,27.3,00.0,37.9,30.7,10.7,0000.0,0009.13,0003.48,0002.90
2022-10-19 05:12:00,,0833.1,5.00,0.00,28.9,27.2,00.0,37.9,30.6,10.6,0000.0,0009.20,0003.47,0002.91
2022-10-19 05:13:00,,0833.2,4.99,0.00,28.9,27.2,00.0,37.8,30.6,10.6,0000.0,0009.20,0003.43,0002.90
2022-10-19 05:14:00,,0833.2,5.01,0.00,28.9,27.2,00.0,37.8,30.6,10.6,0000.0,0009.52,0003.43,0002.89
2022-10-19 05:15:00,,0833.1,5.01,0.00,28.9,27.2,00.0,37.8,30.6,10.6,0000.0,0010.87,0003.42,0002.87
2022-10-19 05:16:00,,0833.2,5.00,0.00,28.9,27.2,00.0,37.8,30.6,10.6,0000.0,0011.79,0003.41,0002.86
2022-10-19 05:17:00,,0833.2,4.98,0.00,28.9,27.2,00.0,37.8,30.5,10.6,0000.0,0011.91,0003.43,0002.86
2022-10-19 05:18:00,,0833.2,5.00,0.00,28.9,27.2,00.0,37.8,30.6,10.6,0000.0,0012.21,0003.45,0002.86
2022-10-19 05:19:00,,0833.2,5.00,0.00,28.9,27.2,00.0,37.8,30.6,10.6,0000.0,0011.26,0003.44,0002.85
2022-10-19 05:20:00,,0833.2,5.00,0.00,28.8,27.2,00.0,37.8,30.5,10.7,0000.0,0010.59,0003.45,0002.85
2022-10-19 05:21:00,,0833.2,5.01,0.00,28.8,27.2,00.0,37.8,30.5,10.6,0000.0,0010.60,0003.46,0002.85
2022-10-19 05:22:00,,0833.1,5.00,0.00,28.8,27.1,00.0,37.8,30.5,10.6,0000.0,0010.58,0003.43,0002.84
2022-10-19 05:23:00,,0833.1,4.99,0.00,28.8,27.1,00.0,37.8,30.5,10.5,0000.0,0010.57,0003.42,0002.84
2022-10-19 05:24:00,,0833.1,5.00,0.00,28.8,27.1,00.0,37.8,30.5,10.4,0000.0,0010.85,0003.42,0002.83
2022-10-19 05:25:00,,0833.2,5.02,0.00,28.8,27.1,00.0,37.7,30.5,10.4,0000.0,0010.66,0003.40,0002.80
2022-10-19 05:26:00,,0833.1,4.99,0.00,28.8,27.1,00.0,37.7,30.5,10.3,0000.0,0009.65,0003.41,0002.80
2022-10-19 05:27:00,,0833.1,4.99,0.00,28.8,27.1,00.0,37.7,30.5,10.4,0000.0,0008.93,0003.41,0002.80
2022-10-19 05:28:00,,0833.1,4.99,0.00,28.8,27.1,00.0,37.7,30.5,10.4,0000.0,0008.72,0003.42,0002.80
2022-10-19 05:29:00,,0833.1,5.02,0.00,28.8,27.1,00.0,37.7,30.5,10.5,0000.0,0008.47,0003.44,0002.81
2022-10-19 05:30:00,,0833.1,5.00,0.00,28.7,27.1,00.0,37.7,30.5,10.4,0000.0,0008.45,0003.48,0002.81
2022-10-19 05:31:00,,0833.1,5.00,0.00,28.7,27.1,00.0,37.7,30.5,10.3,0000.0,0008.00,0003.49,0002.81
2022-10-19 05:32:00,,0833.1,5.00,0.00,28.7,27.0,00.0,37.7,30.5,10.3,0000.0,0007.94,0003.48,0002.80
2022-10-19 05:33:00,,0833.1,5.00,0.00,28.7,27.0,00.0,37.7,30.4,10.2,0000.0,0008.39,0003.47,0002.79
2022-10-19 05:34:00,,0833.1,5.00,0.00,28.7,27.0,00.0,37.7,30.4,10.2,0000.0,0009.07,0003.49,0002.77
2022-10-19 05:35:00,,0833.1,4.99,0.00,28.7,27.0,00.0,37.6,30.4,10.2,0000.0,0009.18,0003.51,0002.76
2022-10-19 05:36:00,,0833.0,5.00,0.00,28.7,27.0,00.0,37.6,30.4,10.3,0000.0,0009.11,0003.50,0002.76
2022-10-19 05:37:00,,0833.0,5.01,0.00,28.7,27.0,00.0,37.6,30.4,10.2,0000.0,0009.03,0003.51,0002.76
2022-10-19 05:38:00,,0833.0,5.00,0.00,28.7,27.0,00.0,37.6,30.4,10.3,0000.0,0008.71,0003.50,0002.74
2022-10-19 05:39:00,,0833.0,4.99,0.00,28.7,27.0,00.0,37.6,30.4,10.3,0000.0,0008.75,0003.52,0002.72
2022-10-19 05:40:00,,0833.1,4.99,0.00,28.7,27.0,00.0,37.6,30.5,10.3,0000.0,0008.82,0003.50,0002.70
2022-10-19 05:41:00,,0833.0,5.00,0.00,28.7,27.0,00.0,37.6,30.4,10.2,0000.0,0008.88,0003.44,0002.68
2022-10-19 05:42:00,,0833.0,5.00,0.00,28.7,27.0,00.0,37.6,30.3,10.1,0000.0,0008.68,0003.39,0002.66
2022-10-19 05:43:00,,0833.1,4.99,0.00,28.6,26.9,00.0,37.6,30.4,10.2,0000.0,0008.55,0003.36,0002.65
2022-10-19 05:44:00,,0833.0,4.99,0.00,28.6,26.9,00.0,37.6,30.3,10.0,0000.0,0008.28,0003.36,0002.63
2022-10-19 05:45:00,,0833.0,5.02,0.00,28.6,26.9,00.0,37.6,30.3,10.1,0000.0,0007.82,0003.35,0002.61
2022-10-19 05:46:00,,0833.0,5.00,0.00,28.6,26.9,00.0,37.6,30.3,10.3,0000.0,0008.31,0003.31,0002.61
2022-10-19 05:47:00,,0833.0,5.00,0.00,28.6,26.9,00.0,37.5,30.3,10.1,0000.0,0008.11,0003.28,0002.60
2022-10-19 05:48:00,,0833.0,5.01,0.00,28.6,26.9,00.0,37.5,30.3,10.1,0000.0,0008.06,0003.25,0002.59
2022-10-19 05:49:00,,0833.0,4.99,0.00,28.6,26.9,00.0,37.5,30.3,10.1,0000.0,0009.32,0003.27,0002.58
2022-10-19 05:50:00,,0833.0,5.00,0.00,28.6,26.9,00.0,37.5,30.3,10.3,0000.0,0009.51,0003.24,0002.57
2022-10-19 05:51:00,,0832.9,5.01,0.00,28.6,26.9,00.0,37.5,30.3,10.2,0000.0,0010.12,0003.25,0002.55
2022-10-19 05:52:00,,0832.9,5.00,0.00,28.6,26.8,00.0,37.5,30.2,10.1,0000.0,0009.98,0003.27,0002.55
2022-10-19 05:53:00,,0832.9,5.02,0.00,28.5,26.8,00.0,37.5,30.2,10.2,0000.0,0010.73,0003.31,0002.55
2022-10-19 05:54:00,,0832.9,4.99,0.00,28.5,26.8,00.0,37.5,30.1,10.2,0000.0,0010.86,0003.32,0002.54
2022-10-19 05:55:00,,0832.8,4.99,0.00,28.5,26.7,00.0,37.5,30.1,10.2,0000.0,0010.93,0003.33,0002.55
2022-10-19 05:56:00,,0832.8,5.00,0.00,28.5,26.7,00.0,37.5,30.1,10.2,0000.0,0010.91,0003.33,0002.58
2022-10-19 05:57:00,,0832.8,5.01,0.00,28.5,26.7,00.0,37.5,30.1,10.2,0000.0,0010.09,0003.33,0002.57
2022-10-19 05:58:00,,0832.8,5.00,0.00,28.5,26.7,00.0,37.4,30.2,10.3,0000.0,0009.80,0003.35,0002.58
2022-10-19 05:59:00,,0832.9,5.01,0.00,28.5,26.8,00.0,37.4,30.2,10.4,0000.0,0010.80,0003.38,0002.59
